ZF1EJ Savannah KY current weather conditions

sailwx.info

Wind from 074 at 2 knots gusting 5

Air temperature 28.3° C

Last reported at 2017-Jul-22 02:00 UTC.
Time now 2017-Jul-22 02:46 UTC

Location: N 19°16' W 081°18'.
View on Google Maps.

See reports from other nearby stations

  
Tides and Currents Weather Stations Pressure Air Temp Water Temp Dewpoint Dewpoint Depression Visibility Wind Speed Wind Dir Waves Ship Positions
date/time (UTC)wind fromknots sea level pressurealtimeterstation pressurevisibilityair tempwater tempwave heightnotes
2017-Jul-22 02:00 074 2 gusting 5 28.3
2017-Jul-22 01:00 090 1 gusting 5 28.9
2017-Jul-22 00:00 061 2 gusting 10 29.4
2017-Jul-21 23:00 062 6 gusting 11 30.6
2017-Jul-21 22:00 075 6 gusting 12 31.1
2017-Jul-21 21:00 056 5 gusting 12 32.2
2017-Jul-21 20:00 031 6 gusting 11 32.2
2017-Jul-21 19:00 038 6 gusting 8 31.7
2017-Jul-21 18:00 123 4 gusting 11 32.8
2017-Jul-21 17:00 053 6 gusting 8 32.8
2017-Jul-21 16:00 125 4 gusting 8 31.7
2017-Jul-21 15:00 108 6 gusting 8 31.7
2017-Jul-21 14:00 160 3 gusting 10 31.1
2017-Jul-21 13:00 099 5 gusting 6 30.0
2017-Jul-21 12:00 115 1 gusting 2 27.8
2017-Jul-21 11:00 084 1 gusting 4 26.7
2017-Jul-21 10:00 097 2 gusting 4 26.1
2017-Jul-21 09:00 049 2 gusting 2 26.7
2017-Jul-21 08:00 034 1 gusting 2 27.2
2017-Jul-21 07:00 093 2 gusting 4 27.2
2017-Jul-21 06:00 082 2 gusting 4 27.8
2017-Jul-21 05:00 093 1 gusting 4 27.8
2017-Jul-21 04:00 117 2 gusting 4 27.8
2017-Jul-21 03:00 054 1 gusting 2 28.3
2017-Jul-21 02:00 073 1 gusting 5 28.3
2017-Jul-21 01:00 063 4 gusting 6 28.9
2017-Jul-21 00:00 108 2 gusting 11 30.0
2017-Jul-20 23:00 091 5 gusting 8 31.1
2017-Jul-20 22:00 093 4 gusting 12 31.7
2017-Jul-20 21:00 122 10 gusting 13 31.7
2017-Jul-20 20:00 117 8 gusting 13 32.2
2017-Jul-20 19:00 129 9 gusting 13 31.7
2017-Jul-20 18:00 142 12 gusting 13 31.7
2017-Jul-20 17:00 128 4 gusting 13 32.2
2017-Jul-20 16:00 143 6 gusting 11 31.7
2017-Jul-20 15:00 170 7 gusting 11 31.7
2017-Jul-20 14:00 176 5 gusting 8 31.1
2017-Jul-20 13:00 098 2 gusting 5 29.4
2017-Jul-20 12:00 086 2 gusting 2 26.7
2017-Jul-20 11:00 057 1 gusting 2 26.1
2017-Jul-20 10:00 102 1 gusting 1 26.1
2017-Jul-20 09:00 085 0 gusting 1 26.1
2017-Jul-20 08:00 090 2 gusting 2 26.1
2017-Jul-20 07:00 079 1 gusting 1 26.7
2017-Jul-20 06:00 066 1 gusting 2 26.7
2017-Jul-20 05:00 074 1 gusting 2 27.2
2017-Jul-20 04:00 033 1 gusting 1 27.8
2017-Jul-20 02:00 090 1 gusting 4 27.8